This is the latest recevied weather packets stored in our database for station/object WP3XM. If no packets are shown the sender has not sent any weather packets the latest 10 day(s).
| Time | Temp. | Humidity | Pressure | Rain* | Wind** | Luminosity | Snow |
|---|---|---|---|---|---|---|---|
| 1778076224 | 28.89° C | 71% | 1020.3 hPa | 0 mm | - | 866 W/m² | - |
| 1778075922 | 28.89° C | 73% | 1020.5 hPa | 0 mm | - | 865 W/m² | - |
| 1778075618 | 28.33° C | 75% | 1020.3 hPa | 0 mm | - | 879 W/m² | - |
| 1778075314 | 28.89° C | 75% | 1020.4 hPa | 0 mm | - | 759 W/m² | - |
| 1778075011 | 28.33° C | 77% | 1020.2 hPa | 0 mm | - | 891 W/m² | - |
| 1778074708 | 28.33° C | 76% | 1020.4 hPa | 0 mm | - | 194 W/m² | - |
| 1778074405 | 27.78° C | 77% | 1020.4 hPa | 0 mm | - | 853 W/m² | - |
| 1778074102 | 28.33° C | 76% | 1020.4 hPa | 0 mm | - | 287 W/m² | - |
| 1778073799 | 27.78° C | 80% | 1020.4 hPa | 0 mm | - | 857 W/m² | - |
| 1778073497 | 27.78° C | 77% | 1020.3 hPa | 0 mm | - | 170 W/m² | - |
| 1778073193 | 27.78° C | 76% | 1020.4 hPa | 0 mm | - | 730 W/m² | - |
| 1778072890 | 28.33° C | 77% | 1020.2 hPa | 0 mm | - | 688 W/m² | - |
| 1778072586 | 28.33° C | 76% | 1020.2 hPa | 0 mm | - | 234 W/m² | - |
| 1778072285 | 27.78° C | 77% | 1020.1 hPa | 0 mm | - | 713 W/m² | - |
| 1778071982 | 27.22° C | 81% | 1020.2 hPa | 0 mm | - | 626 W/m² | - |
| 1778071681 | 26.67° C | 83% | 1020.1 hPa | 0 mm | - | 585 W/m² | - |
| 1778071377 | 26.67° C | 83% | 1020 hPa | 0 mm | - | 156 W/m² | - |
| 1778071075 | 26.67° C | 83% | 1019.9 hPa | 0 mm | - | 110 W/m² | - |
| 1778070773 | 26.67° C | 82% | 1020 hPa | 0 mm | - | 460 W/m² | - |
| 1778070470 | 26.67° C | 83% | 1019.9 hPa | 0 mm | - | 159 W/m² | - |
| 1778070167 | 26.67° C | 83% | 1019.8 hPa | 0 mm | - | 242 W/m² | - |
| 1778069865 | 26.67° C | 83% | 1020 hPa | 0 mm | - | 130 W/m² | - |
| 1778069562 | 27.22° C | 82% | 1019.9 hPa | 0 mm | - | 217 W/m² | - |
| 1778069259 | 27.22° C | 84% | 1019.7 hPa | 0 mm | - | 757 W/m² | - |
| 1778068957 | 27.22° C | 83% | 1019.8 hPa | 0 mm | - | 121 W/m² | - |
* Rain latest hour (hover to see other rain measurements)
** Current wind speed in m/s (hover to see current wind gust speed)